Location: Atlantic Beach
(40.5890°N, 73.7290°W)
Time: 13:13:10
(UTC+00:00)

Cosmos 1346 Rocket - Pass Details

Date: 29 October 2020
Orbit: 535 x 543 km, 81.2° (Epoch: 01 December)

Event Time Altitude Azimuth Distance (km) Brightness Sun altitude
Rises 22:17:02 0° 9° (N) 2,714 6.1 -5.0°
Reaches altitude 10° 22:19:58 10° 32° (NNE) 1,816 5.1 -5.5°
Maximum altitude 22:22:25 16° 70° (ENE) 1,483 4.4 -5.9°
Drops below altitude 10° 22:24:53 10° 108° (ESE) 1,808 4.9 -6.4°
Sets 22:27:46 0° 131° (SE) 2,694 6.0 -6.9°
